Station Historical Data
Daily Summary for May 14, 2012 Units:  Metric    English   Both
« Previous Day
Next Day »
Daily Weekly Monthly Yearly Custom
  High: Low: Average:
Temperature: 22.5 °C 15.8 °C 18.3 °C
Dew Point: 18.8 °C 14.8 °C 16.6 °C
Humidity: 94% 76% 89%
Wind Speed: 19.3km/h 0km/h 6km/h
Wind Gust: 25.7km/h - -
Wind- - WNW
Pressure: 1015.1 hPa 1012.4 hPa -
Precipitation: 0.25 mm    
Historical Graphs
 
 
Tabular Data for May 14, 2012
Time Temperature Dew Point Pressure Wind Wind Speed Wind Gust Humidity Rainfall Rate (Hourly) Conditions
00:00 16.4 °C 15.5 °C 1014.1 hPa NW 3.2 km/h 3.2 km/h 94% 0 mm
00:01 16.4 °C 15.5 °C 1014.1 hPa NW 3.2 km/h 3.2 km/h 94% 0 mm
00:06 16.4 °C 15.5 °C 1014.1 hPa WNW 3.2 km/h 4.8 km/h 94% 0 mm
00:11 16.5 °C 15.6 °C 1014.1 hPa WNW 3.2 km/h 4.8 km/h 94% 0 mm
00:16 16.5 °C 15.6 °C 1014.1 hPa WNW 4.8 km/h 6.4 km/h 94% 0 mm
00:21 16.5 °C 15.6 °C 1014.1 hPa WNW 4.8 km/h 6.4 km/h 94% 0 mm
00:27 16.5 °C 15.6 °C 1014.1 hPa WNW 6.4 km/h 8 km/h 94% 0 mm
00:32 16.5 °C 15.6 °C 1014.1 hPa NW 6.4 km/h 8 km/h 94% 0 mm
00:37 16.6 °C 15.6 °C 1014.1 hPa NW 1.6 km/h 6.4 km/h 94% 0 mm
00:42 16.6 °C 15.6 °C 1014.1 hPa North 4.8 km/h 6.4 km/h 94% 0 mm
00:47 16.6 °C 15.6 °C 1014.1 hPa NNW 3.2 km/h 9.7 km/h 94% 0 mm
00:52 16.6 °C 15.7 °C 1014.1 hPa NW 3.2 km/h 6.4 km/h 94% 0 mm
00:58 16.6 °C 15.7 °C 1014.1 hPa NNW 3.2 km/h 8 km/h 94% 0 mm
01:03 16.6 °C 15.7 °C 1014.1 hPa NNW 4.8 km/h 8 km/h 94% 0 mm
01:08 16.6 °C 15.7 °C 1014.1 hPa NNW 8 km/h 8 km/h 94% 0 mm
01:13 16.6 °C 15.7 °C 1014.1 hPa WNW 4.8 km/h 6.4 km/h 94% 0 mm
01:18 16.6 °C 15.7 °C 1013.8 hPa NNW 4.8 km/h 8 km/h 94% 0 mm
01:23 16.6 °C 15.6 °C 1013.8 hPa NW 3.2 km/h 8 km/h 94% 0 mm
01:28 16.6 °C 15.6 °C 1013.8 hPa NW 8 km/h 12.9 km/h 94% 0 mm
01:33 16.6 °C 15.6 °C 1013.8 hPa NW 6.4 km/h 9.7 km/h 94% 0 mm
01:38 16.5 °C 15.6 °C 1013.8 hPa NW 6.4 km/h 11.3 km/h 94% 0 mm
01:43 16.5 °C 15.4 °C 1013.8 hPa NW 4.8 km/h 14.5 km/h 93% 0 mm
01:49 16.4 °C 15.3 °C 1013.4 hPa NW 8 km/h 9.7 km/h 93% 0 mm
01:54 16.4 °C 15.3 °C 1013.4 hPa NW 3.2 km/h 8 km/h 93% 0 mm
01:59 16.4 °C 15.3 °C 1013.4 hPa NW 6.4 km/h 8 km/h 93% 0 mm
02:04 16.4 °C 15.5 °C 1013.4 hPa NW 1.6 km/h 3.2 km/h 94% 0 mm
02:09 16.4 °C 15.5 °C 1013.4 hPa NNW 3.2 km/h 3.2 km/h 94% 0 mm
02:10 16.4 °C 15.5 °C 1013.4 hPa West 3.2 km/h 4.8 km/h 94% 0 mm
02:15 16.4 °C 15.4 °C 1013.4 hPa NW 6.4 km/h 8 km/h 94% 0 mm
02:20 16.4 °C 15.5 °C 1013.4 hPa NW 3.2 km/h 8 km/h 94% 0 mm
02:25 16.4 °C 15.4 °C 1013.1 hPa WNW 4.8 km/h 8 km/h 94% 0 mm
02:31 16.4 °C 15.4 °C 1013.1 hPa WNW 4.8 km/h 8 km/h 94% 0 mm
02:36 16.3 °C 15.4 °C 1013.1 hPa WNW 3.2 km/h 6.4 km/h 94% 0 mm
02:42 16.3 °C 15.4 °C 1013.1 hPa NNW 8 km/h 9.7 km/h 94% 0 mm
02:47 16.3 °C 15.4 °C 1013.1 hPa NW 4.8 km/h 8 km/h 94% 0 mm
02:52 16.3 °C 15.3 °C 1013.1 hPa NW 8 km/h 9.7 km/h 94% 0 mm
02:57 16.3 °C 15.3 °C 1012.8 hPa NW 6.4 km/h 6.4 km/h 94% 0 mm
03:02 16.3 °C 15.3 °C 1012.8 hPa WNW 3.2 km/h 6.4 km/h 94% 0 mm
03:07 16.3 °C 15.3 °C 1012.8 hPa NW 4.8 km/h 6.4 km/h 94% 0 mm
03:13 16.3 °C 15.3 °C 1012.8 hPa NNW 3.2 km/h 4.8 km/h 94% 0 mm
03:18 16.2 °C 15.3 °C 1012.8 hPa NW 3.2 km/h 8 km/h 94% 0 mm
03:23 16.2 °C 15.3 °C 1012.8 hPa WNW 3.2 km/h 6.4 km/h 94% 0 mm
03:28 16.2 °C 15.3 °C 1012.4 hPa WNW 3.2 km/h 6.4 km/h 94% 0 mm
03:33 16.2 °C 15.3 °C 1012.4 hPa WNW 3.2 km/h 3.2 km/h 94% 0 mm
03:38 16.2 °C 15.2 °C 1012.4 hPa WNW 3.2 km/h 6.4 km/h 94% 0 mm
03:43 16.2 °C 15.2 °C 1012.4 hPa WNW 4.8 km/h 6.4 km/h 94% 0 mm
03:48 16.1 °C 15.2 °C 1012.4 hPa WNW 4.8 km/h 6.4 km/h 94% 0 mm
03:53 16.1 °C 15.2 °C 1012.4 hPa NW 3.2 km/h 8 km/h 94% 0 mm
03:58 16.1 °C 15.2 °C 1012.4 hPa NW 8 km/h 8 km/h 94% 0 mm
04:03 16.1 °C 15.1 °C 1012.4 hPa WNW 4.8 km/h 8 km/h 94% 0 mm
04:08 16.1 °C 15.1 °C 1012.4 hPa NW 3.2 km/h 8 km/h 94% 0 mm
04:13 16 °C 15.1 °C 1012.4 hPa NNW 4.8 km/h 8 km/h 94% 0 mm
04:18 16 °C 15.1 °C 1012.4 hPa NW 6.4 km/h 6.4 km/h 94% 0 mm
04:24 16 °C 15.1 °C 1012.8 hPa NW 3.2 km/h 6.4 km/h 94% 0 mm
04:29 15.9 °C 15 °C 1012.8 hPa WNW 1.6 km/h 6.4 km/h 94% 0 mm
04:34 15.9 °C 15 °C 1012.8 hPa WNW 3.2 km/h 4.8 km/h 94% 0 mm
04:39 15.9 °C 15 °C 1012.8 hPa NW 4.8 km/h 4.8 km/h 94% 0 mm
04:44 15.9 °C 14.9 °C 1012.8 hPa WNW 4.8 km/h 4.8 km/h 94% 0 mm
04:49 15.9 °C 14.9 °C 1012.8 hPa West 4.8 km/h 4.8 km/h 94% 0 mm
04:54 15.8 °C 14.9 °C 1012.8 hPa WNW 3.2 km/h 3.2 km/h 94% 0 mm
04:59 15.8 °C 14.9 °C 1012.8 hPa West 4.8 km/h 6.4 km/h 94% 0 mm
05:04 15.8 °C 14.9 °C 1012.8 hPa WNW 3.2 km/h 4.8 km/h 94% 0 mm
05:09 15.8 °C 14.9 °C 1012.8 hPa West 3.2 km/h 8 km/h 94% 0 mm
05:14 15.8 °C 14.9 °C 1012.8 hPa WNW 4.8 km/h 6.4 km/h 94% 0 mm
05:19 15.8 °C 14.9 °C 1012.8 hPa WNW 4.8 km/h 8 km/h 94% 0 mm
05:24 15.8 °C 14.8 °C 1012.8 hPa WNW 4.8 km/h 6.4 km/h 94% 0 mm
05:29 15.8 °C 14.8 °C 1012.8 hPa WNW 4.8 km/h 8 km/h 94% 0 mm
05:34 15.8 °C 14.8 °C 1012.8 hPa WNW 8 km/h 9.7 km/h 94% 0 mm
05:39 15.8 °C 14.8 °C 1012.8 hPa West 6.4 km/h 6.4 km/h 94% 0 mm
05:44 15.8 °C 14.8 °C 1012.8 hPa WNW 6.4 km/h 11.3 km/h 94% 0 mm
05:49 15.8 °C 14.8 °C 1012.8 hPa NW 6.4 km/h 9.7 km/h 94% 0 mm
05:54 15.8 °C 14.8 °C 1012.8 hPa WNW 6.4 km/h 8 km/h 94% 0 mm
05:55 15.8 °C 14.8 °C 1012.8 hPa NW 4.8 km/h 8 km/h 94% 0 mm
06:00 15.8 °C 14.8 °C 1012.8 hPa WNW 3.2 km/h 8 km/h 94% 0 mm
06:05 15.8 °C 14.8 °C 1012.8 hPa WNW 3.2 km/h 6.4 km/h 94% 0 mm
06:10 15.8 °C 14.8 °C 1012.8 hPa NW 4.8 km/h 8 km/h 94% 0 mm
06:15 15.8 °C 14.8 °C 1013.1 hPa WNW 3.2 km/h 6.4 km/h 94% 0 mm
06:20 15.8 °C 14.8 °C 1013.1 hPa NW 3.2 km/h 4.8 km/h 94% 0 mm
06:25 15.8 °C 14.9 °C 1013.1 hPa WNW 1.6 km/h 8 km/h 94% 0 mm
06:30 15.8 °C 14.9 °C 1013.1 hPa WNW 1.6 km/h 4.8 km/h 94% 0 mm
06:35 15.8 °C 14.9 °C 1013.1 hPa NW 1.6 km/h 6.4 km/h 94% 0 mm
06:37 15.8 °C 14.9 °C 1013.1 hPa NW 4.8 km/h 6.4 km/h 94% 0 mm
06:42 15.9 °C 14.9 °C 1013.4 hPa WNW 3.2 km/h 4.8 km/h 94% 0 mm
06:47 15.9 °C 14.9 °C 1013.4 hPa West 1.6 km/h 6.4 km/h 94% 0 mm
06:52 15.9 °C 14.9 °C 1013.4 hPa NW 3.2 km/h 6.4 km/h 94% 0 mm
06:57 15.9 °C 15 °C 1013.4 hPa WNW 3.2 km/h 8 km/h 94% 0 mm
07:02 15.9 °C 14.9 °C 1013.4 hPa NW 6.4 km/h 8 km/h 94% 0 mm
07:07 15.9 °C 15 °C 1013.4 hPa WNW 4.8 km/h 8 km/h 94% 0 mm
07:12 15.9 °C 15 °C 1013.4 hPa NW 4.8 km/h 6.4 km/h 94% 0 mm
07:17 15.9 °C 15 °C 1013.4 hPa NW 8 km/h 9.7 km/h 94% 0 mm
07:22 15.9 °C 15 °C 1013.8 hPa West 3.2 km/h 8 km/h 94% 0 mm
07:27 15.9 °C 15 °C 1013.8 hPa NW 4.8 km/h 8 km/h 94% 0 mm
07:33 15.9 °C 15 °C 1013.8 hPa WNW 8 km/h 12.9 km/h 94% 0 mm
07:38 15.9 °C 15 °C 1013.8 hPa WNW 8 km/h 11.3 km/h 94% 0 mm
07:43 15.9 °C 15 °C 1013.8 hPa WNW 4.8 km/h 11.3 km/h 94% 0 mm
07:48 16 °C 15.1 °C 1013.8 hPa NW 3.2 km/h 6.4 km/h 94% 0 mm
07:53 16.1 °C 15.1 °C 1013.4 hPa NW 6.4 km/h 6.4 km/h 94% 0 mm
07:58 16.1 °C 15.1 °C 1013.4 hPa NW 8 km/h 11.3 km/h 94% 0 mm
08:03 16.1 °C 15.1 °C 1013.4 hPa NNW 8 km/h 9.7 km/h 94% 0 mm
08:08 16.2 °C 15.2 °C 1013.4 hPa NW 6.4 km/h 8 km/h 94% 0 mm
08:13 16.2 °C 15.2 °C 1013.4 hPa NW 12.9 km/h 12.9 km/h 94% 0 mm
08:18 16.2 °C 15.2 °C 1013.8 hPa NNW 4.8 km/h 8 km/h 94% 0 mm
08:23 16.2 °C 15.3 °C 1013.8 hPa NW 4.8 km/h 14.5 km/h 94% 0 mm
08:29 16.2 °C 15.3 °C 1013.8 hPa WNW 3.2 km/h 9.7 km/h 94% 0 mm
08:34 16.3 °C 15.3 °C 1013.8 hPa NNW 9.7 km/h 11.3 km/h 94% 0 mm
08:39 16.3 °C 15.4 °C 1013.8 hPa NW 6.4 km/h 8 km/h 94% 0 mm
08:44 16.4 °C 15.4 °C 1013.8 hPa WNW 8 km/h 9.7 km/h 94% 0 mm
08:49 16.4 °C 15.5 °C 1013.8 hPa NW 6.4 km/h 9.7 km/h 94% 0 mm
08:54 16.4 °C 15.5 °C 1013.8 hPa WNW 4.8 km/h 14.5 km/h 94% 0 mm
08:59 16.6 °C 15.6 °C 1013.8 hPa NNW 9.7 km/h 9.7 km/h 94% 0 mm
09:04 16.7 °C 15.7 °C 1013.8 hPa NW 8 km/h 9.7 km/h 94% 0 mm
09:09 16.7 °C 15.7 °C 1014.1 hPa NW 9.7 km/h 16.1 km/h 94% 0 mm
09:10 16.7 °C 15.7 °C 1014.1 hPa NW 9.7 km/h 16.1 km/h 94% 0 mm
09:15 16.8 °C 15.8 °C 1014.1 hPa West 4.8 km/h 11.3 km/h 94% 0 mm
09:20 16.9 °C 16 °C 1014.1 hPa WNW 6.4 km/h 9.7 km/h 94% 0 mm
09:25 17.1 °C 16.1 °C 1014.1 hPa NNW 8 km/h 12.9 km/h 94% 0 mm
09:30 17.2 °C 16.2 °C 1014.1 hPa NW 4.8 km/h 14.5 km/h 94% 0 mm
09:35 17.2 °C 16.2 °C 1014.1 hPa NNW 8 km/h 9.7 km/h 94% 0 mm
09:40 17.3 °C 16.3 °C 1014.1 hPa NW 1.6 km/h 11.3 km/h 94% 0 mm
09:45 17.3 °C 16.4 °C 1014.1 hPa NW 9.7 km/h 14.5 km/h 94% 0 mm
09:50 17.4 °C 16.4 °C 1014.1 hPa NW 4.8 km/h 16.1 km/h 94% 0 mm
09:55 17.4 °C 16.5 °C 1014.4 hPa NW 8 km/h 11.3 km/h 94% 0 mm
10:00 17.6 °C 16.6 °C 1014.4 hPa NW 8 km/h 11.3 km/h 94% 0 mm
10:05 17.5 °C 16.6 °C 1014.4 hPa NNW 8 km/h 14.5 km/h 94% 0 mm
10:10 17.5 °C 16.6 °C 1014.4 hPa NNW 6.4 km/h 12.9 km/h 94% 0 mm
10:15 17.6 °C 16.6 °C 1014.4 hPa North 11.3 km/h 14.5 km/h 94% 0 mm
10:21 17.6 °C 16.4 °C 1014.4 hPa NNW 6.4 km/h 12.9 km/h 93% 0 mm
10:26 17.7 °C 16.5 °C 1014.4 hPa NW 9.7 km/h 9.7 km/h 93% 0 mm
10:31 17.7 °C 16.6 °C 1014.4 hPa NNW 4.8 km/h 12.9 km/h 93% 0 mm
10:36 17.8 °C 16.6 °C 1014.4 hPa NNW 4.8 km/h 9.7 km/h 93% 0 mm
10:41 17.8 °C 16.7 °C 1014.4 hPa NNW 11.3 km/h 12.9 km/h 93% 0 mm
10:46 17.9 °C 16.8 °C 1014.4 hPa NNW 4.8 km/h 9.7 km/h 93% 0 mm
10:51 18 °C 16.8 °C 1014.1 hPa NNW 6.4 km/h 12.9 km/h 93% 0 mm
10:56 18.3 °C 17.1 °C 1014.1 hPa North 9.7 km/h 11.3 km/h 93% 0 mm
11:01 18.4 °C 17.3 °C 1014.1 hPa North 6.4 km/h 12.9 km/h 93% 0 mm
11:06 18.7 °C 17.4 °C 1014.1 hPa NNW 3.2 km/h 12.9 km/h 92% 0 mm
11:11 18.8 °C 17.5 °C 1014.4 hPa North 8 km/h 16.1 km/h 92% 0 mm
11:16 18.9 °C 17.6 °C 1014.4 hPa North 6.4 km/h 12.9 km/h 92% 0 mm
11:21 19.1 °C 17.6 °C 1014.4 hPa NNE 3.2 km/h 11.3 km/h 91% 0 mm
11:26 19.2 °C 17.7 °C 1014.4 hPa NW 6.4 km/h 11.3 km/h 91% 0 mm
11:31 19.2 °C 17.7 °C 1014.8 hPa NNE 3.2 km/h 6.4 km/h 91% 0 mm
11:36 19.2 °C 17.7 °C 1014.8 hPa NNE 3.2 km/h 6.4 km/h 91% 0 mm
11:41 19.1 °C 17.4 °C 1014.8 hPa North 3.2 km/h 8 km/h 90% 0 mm
11:46 19 °C 17.5 °C 1014.8 hPa NNW 6.4 km/h 11.3 km/h 91% 0 mm
11:52 18.9 °C 17.6 °C 1014.8 hPa NNW 6.4 km/h 9.7 km/h 92% 0 mm
11:57 18.9 °C 17.6 °C 1014.8 hPa NW 8 km/h 9.7 km/h 92% 0 mm
12:02 19 °C 17.5 °C 1015.1 hPa WNW 8 km/h 14.5 km/h 91% 0 mm
12:07 19.1 °C 17.6 °C 1014.8 hPa NNW 6.4 km/h 11.3 km/h 91% 0 mm
12:12 19.3 °C 17.6 °C 1014.8 hPa NNW 9.7 km/h 12.9 km/h 90% 0 mm
12:17 19.6 °C 18.1 °C 1015.1 hPa North 8 km/h 11.3 km/h 91% 0 mm
12:22 19.7 °C 17.9 °C 1015.1 hPa NNW 6.4 km/h 11.3 km/h 89% 0 mm
12:27 19.7 °C 17.7 °C 1015.1 hPa North 6.4 km/h 9.7 km/h 88% 0 mm
12:32 19.7 °C 17.8 °C 1015.1 hPa North 8 km/h 11.3 km/h 89% 0 mm
12:37 19.6 °C 17.8 °C 1015.1 hPa North 6.4 km/h 9.7 km/h 89% 0 mm
12:42 19.8 °C 17.9 °C 1015.1 hPa NNW 6.4 km/h 8 km/h 89% 0 mm
12:47 20.1 °C 18 °C 1015.1 hPa North 3.2 km/h 8 km/h 88% 0 mm
12:52 20.3 °C 17.9 °C 1015.1 hPa NE 9.7 km/h 12.9 km/h 86% 0 mm
12:57 20.3 °C 17.7 °C 1015.1 hPa NW 6.4 km/h 9.7 km/h 85% 0 mm
13:02 20.7 °C 18.1 °C 1015.1 hPa NNE 3.2 km/h 11.3 km/h 85% 0 mm
13:07 20.8 °C 17.8 °C 1015.1 hPa NNE 9.7 km/h 14.5 km/h 83% 0 mm
13:12 20.7 °C 17.6 °C 1015.1 hPa NE 6.4 km/h 16.1 km/h 82% 0 mm
13:17 20.6 °C 17.8 °C 1014.8 hPa NNE 6.4 km/h 16.1 km/h 84% 0 mm
13:22 20.4 °C 17.9 °C 1014.8 hPa ENE 9.7 km/h 11.3 km/h 86% 0 mm
13:27 20.3 °C 17.7 °C 1014.8 hPa NE 9.7 km/h 14.5 km/h 85% 0 mm
13:32 20.4 °C 17.9 °C 1014.8 hPa NW 3.2 km/h 11.3 km/h 86% 0 mm
13:37 20.7 °C 18.2 °C 1014.8 hPa NNW 9.7 km/h 12.9 km/h 86% 0 mm
13:42 20.8 °C 18.2 °C 1014.8 hPa North 9.7 km/h 14.5 km/h 85% 0 mm
13:47 21.1 °C 18.1 °C 1014.4 hPa NNE 6.4 km/h 11.3 km/h 83% 0 mm
13:52 21.6 °C 18.2 °C 1014.4 hPa NNW 4.8 km/h 16.1 km/h 81% 0 mm
13:57 21.7 °C 18.5 °C 1014.4 hPa NNW 8 km/h 16.1 km/h 82% 0 mm
14:02 21.8 °C 18.1 °C 1014.4 hPa NE 6.4 km/h 11.3 km/h 79% 0 mm
14:07 21.9 °C 18.1 °C 1014.4 hPa NW 12.9 km/h 16.1 km/h 79% 0 mm
14:12 21.8 °C 18.1 °C 1014.4 hPa North 11.3 km/h 11.3 km/h 79% 0 mm
14:17 21.9 °C 18.3 °C 1014.4 hPa ENE 9.7 km/h 12.9 km/h 80% 0 mm
14:22 21.7 °C 18.3 °C 1014.4 hPa NNE 9.7 km/h 12.9 km/h 81% 0 mm
14:27 21.5 °C 17.7 °C 1014.4 hPa ENE 11.3 km/h 12.9 km/h 79% 0 mm
14:32 21.2 °C 17.7 °C 1014.1 hPa NNE 6.4 km/h 11.3 km/h 80% 0 mm
14:37 21.6 °C 18.2 °C 1014.1 hPa NNW 1.6 km/h 9.7 km/h 81% 0 mm
14:42 21.7 °C 18.3 °C 1014.1 hPa NNW 4.8 km/h 9.7 km/h 81% 0 mm
14:47 21.9 °C 17.9 °C 1014.1 hPa North 1.6 km/h 14.5 km/h 78% 0 mm
14:52 21.9 °C 18.1 °C 1014.1 hPa North 3.2 km/h 8 km/h 79% 0 mm
14:57 21.8 °C 18.1 °C 1014.1 hPa NNE 8 km/h 9.7 km/h 79% 0 mm
15:02 21.7 °C 18.3 °C 1014.1 hPa North 8 km/h 12.9 km/h 81% 0 mm
15:07 21.4 °C 17.8 °C 1014.1 hPa NNW 9.7 km/h 12.9 km/h 80% 0 mm
15:12 21.3 °C 18.1 °C 1014.1 hPa NW 6.4 km/h 11.3 km/h 82% 0 mm
15:17 21.2 °C 17.8 °C 1014.1 hPa NNW 8 km/h 8 km/h 81% 0 mm
15:23 21.3 °C 18.2 °C 1013.8 hPa WNW 6.4 km/h 12.9 km/h 82% 0 mm
15:28 21.4 °C 18.4 °C 1013.8 hPa WNW 8 km/h 11.3 km/h 83% 0 mm
15:33 21.5 °C 18.5 °C 1013.8 hPa WNW 4.8 km/h 8 km/h 83% 0 mm
15:38 21.7 °C 18.4 °C 1013.8 hPa NW 9.7 km/h 14.5 km/h 82% 0 mm
15:43 21.7 °C 18.7 °C 1013.8 hPa NW 12.9 km/h 14.5 km/h 83% 0 mm
15:49 22.3 °C 18.8 °C 1013.8 hPa WNW 17.7 km/h 17.7 km/h 81% 0 mm
15:54 22.2 °C 18.8 °C 1013.4 hPa NNW 14.5 km/h 17.7 km/h 81% 0 mm
15:59 22 °C 18.4 °C 1013.4 hPa WNW 17.7 km/h 24.1 km/h 80% 0 mm
16:04 22.1 °C 18.3 °C 1013.4 hPa NW 19.3 km/h 19.3 km/h 79% 0 mm
16:09 22.2 °C 18.2 °C 1013.4 hPa NW 11.3 km/h 17.7 km/h 78% 0 mm
16:14 22.3 °C 18.8 °C 1013.4 hPa NW 14.5 km/h 17.7 km/h 81% 0 mm
16:19 22.2 °C 18.3 °C 1013.4 hPa NW 9.7 km/h 19.3 km/h 79% 0 mm
16:24 22.2 °C 17.7 °C 1013.4 hPa NW 12.9 km/h 20.9 km/h 76% 0 mm
16:29 22.4 °C 18.4 °C 1013.4 hPa North 16.1 km/h 16.1 km/h 78% 0 mm
16:34 22.3 °C 18.5 °C 1013.4 hPa WNW 16.1 km/h 20.9 km/h 79% 0 mm
16:39 22.5 °C 18.5 °C 1013.4 hPa WNW 8 km/h 17.7 km/h 78% 0 mm
16:44 22.3 °C 18.7 °C 1013.4 hPa NW 14.5 km/h 14.5 km/h 80% 0 mm
16:49 22 °C 18.4 °C 1013.4 hPa NW 12.9 km/h 16.1 km/h 80% 0 mm
16:54 22.1 °C 18.5 °C 1013.4 hPa NW 11.3 km/h 16.1 km/h 80% 0 mm
16:59 22.2 °C 18.6 °C 1013.1 hPa WNW 12.9 km/h 16.1 km/h 80% 0 mm
17:04 22.3 °C 18.4 °C 1013.1 hPa WNW 9.7 km/h 16.1 km/h 79% 0 mm
17:09 22.2 °C 18.4 °C 1013.1 hPa NW 9.7 km/h 19.3 km/h 79% 0 mm
17:14 22.2 °C 18.6 °C 1013.1 hPa NNW 12.9 km/h 14.5 km/h 80% 0 mm
17:19 22.5 °C 18.3 °C 1013.1 hPa North 11.3 km/h 19.3 km/h 77% 0 mm
17:24 22.4 °C 18.2 °C 1013.1 hPa NNW 16.1 km/h 22.5 km/h 77% 0 mm
17:29 22.2 °C 18 °C 1013.1 hPa North 9.7 km/h 19.3 km/h 77% 0 mm
17:34 21.9 °C 17.9 °C 1013.1 hPa NW 17.7 km/h 25.7 km/h 78% 0 mm
17:39 21.4 °C 17.8 °C 1013.1 hPa NNW 9.7 km/h 19.3 km/h 80% 0 mm
17:45 21.2 °C 17.8 °C 1013.1 hPa NW 11.3 km/h 14.5 km/h 81% 0 mm
17:50 21 °C 17.6 °C 1013.1 hPa NW 11.3 km/h 16.1 km/h 81% 0 mm
17:55 20.9 °C 17.8 °C 1013.1 hPa NNW 6.4 km/h 11.3 km/h 82% 0 mm
18:00 21 °C 17.8 °C 1013.1 hPa NW 4.8 km/h 11.3 km/h 82% 0 mm
18:05 21.1 °C 17.9 °C 1013.1 hPa NNW 6.4 km/h 9.7 km/h 82% 0 mm
18:10 21.2 °C 18 °C 1013.1 hPa NW 6.4 km/h 12.9 km/h 82% 0 mm
18:15 21.4 °C 18.1 °C 1013.1 hPa NW 11.3 km/h 17.7 km/h 81% 0 mm
18:20 21.5 °C 18.3 °C 1013.1 hPa West 11.3 km/h 16.1 km/h 82% 0 mm
18:25 21.4 °C 17.7 °C 1013.1 hPa NW 11.3 km/h 16.1 km/h 79% 0 mm
18:30 21.3 °C 17.7 °C 1013.1 hPa WNW 6.4 km/h 14.5 km/h 80% 0 mm
18:35 21.2 °C 18 °C 1013.1 hPa NNW 3.2 km/h 8 km/h 82% 0 mm
18:40 21.1 °C 17.7 °C 1013.4 hPa NW 11.3 km/h 11.3 km/h 81% 0 mm
18:45 21 °C 17.8 °C 1013.1 hPa NNW 8 km/h 11.3 km/h 82% 0 mm
18:46 21 °C 17.8 °C 1013.1 hPa WNW 6.4 km/h 11.3 km/h 82% 0 mm
18:51 20.9 °C 17.9 °C 1013.1 hPa WNW 4.8 km/h 8 km/h 83% 0 mm
18:56 20.8 °C 17.8 °C 1013.1 hPa NW 6.4 km/h 9.7 km/h 83% 0 mm
19:01 20.7 °C 17.7 °C 1013.4 hPa WNW 4.8 km/h 12.9 km/h 83% 0 mm
19:06 20.6 °C 17.8 °C 1013.4 hPa WNW 6.4 km/h 8 km/h 84% 0 mm
19:11 20.6 °C 17.9 °C 1013.1 hPa NNW 4.8 km/h 8 km/h 85% 0 mm
19:16 20.6 °C 17.9 °C 1013.1 hPa NW 9.7 km/h 9.7 km/h 85% 0 mm
19:21 20.6 °C 17.9 °C 1013.1 hPa WNW 6.4 km/h 8 km/h 85% 0 mm
19:26 20.6 °C 17.8 °C 1013.1 hPa NW 4.8 km/h 11.3 km/h 84% 0 mm
19:32 20.6 °C 17.8 °C 1013.1 hPa NNW 6.4 km/h 11.3 km/h 84% 0 mm
19:37 20.4 °C 17.4 °C 1013.1 hPa NW 9.7 km/h 9.7 km/h 83% 0 mm
19:42 20.3 °C 16.9 °C 1013.1 hPa NNW 6.4 km/h 12.9 km/h 81% 0 mm
19:47 20.2 °C 17 °C 1013.1 hPa NNW 9.7 km/h 12.9 km/h 82% 0 mm
19:52 20.1 °C 17.1 °C 1013.1 hPa NNW 6.4 km/h 17.7 km/h 83% 0 mm
19:57 19.9 °C 16.9 °C 1013.1 hPa NNW 6.4 km/h 12.9 km/h 83% 0 mm
20:02 19.8 °C 17.1 °C 1013.1 hPa NNW 8 km/h 12.9 km/h 84% 0 mm
20:07 19.7 °C 16.9 °C 1013.1 hPa NNW 6.4 km/h 9.7 km/h 84% 0 mm
20:12 19.6 °C 17 °C 1013.1 hPa NNW 8 km/h 8 km/h 85% 0 mm
20:17 19.5 °C 17.1 °C 1013.1 hPa NNW 4.8 km/h 8 km/h 86% 0 mm
20:22 19.4 °C 17 °C 1013.1 hPa NNW 3.2 km/h 4.8 km/h 86% 0 mm
20:27 19.3 °C 17.1 °C 1013.4 hPa North 3.2 km/h 3.2 km/h 87% 0 mm
20:32 19.2 °C 16.9 °C 1013.4 hPa NW 1.6 km/h 3.2 km/h 87% 0 mm
20:37 19.1 °C 17 °C 1013.4 hPa NW 3.2 km/h 4.8 km/h 88% 0 mm
20:42 18.9 °C 16.9 °C 1013.4 hPa NW 1.6 km/h 3.2 km/h 88% 0 mm
20:47 18.9 °C 16.8 °C 1013.4 hPa NW 3.2 km/h 4.8 km/h 88% 0 mm
20:52 18.8 °C 16.9 °C 1013.4 hPa NNW 3.2 km/h 3.2 km/h 89% 0 mm
20:57 18.7 °C 16.8 °C 1013.4 hPa NW 4.8 km/h 6.4 km/h 89% 0 mm
21:02 18.6 °C 16.8 °C 1013.4 hPa NNW 3.2 km/h 8 km/h 89% 0 mm
21:07 18.6 °C 16.7 °C 1013.4 hPa NNW 4.8 km/h 4.8 km/h 89% 0 mm
21:13 18.4 °C 16.7 °C 1013.4 hPa NNW 4.8 km/h 4.8 km/h 90% 0 mm
21:18 18.3 °C 16.7 °C 1013.4 hPa NW 4.8 km/h 6.4 km/h 90% 0 mm
21:23 18.2 °C 16.6 °C 1013.4 hPa NW 4.8 km/h 4.8 km/h 90% 0 mm
21:28 18.2 °C 16.7 °C 1013.8 hPa NW 4.8 km/h 4.8 km/h 91% 0 mm
21:33 18.1 °C 16.6 °C 1013.8 hPa NW 3.2 km/h 3.2 km/h 91% 0 mm
21:38 18.1 °C 16.6 °C 1013.8 hPa NW 3.2 km/h 3.2 km/h 91% 0 mm
21:43 18 °C 16.5 °C 1013.8 hPa NW 1.6 km/h 1.6 km/h 91% 0 mm
21:48 17.9 °C 16.4 °C 1013.8 hPa NW 1.6 km/h 1.6 km/h 91% 0 mm
21:53 17.8 °C 16.5 °C 1014.1 hPa Calm   1.6 km/h 92% 0 mm
21:58 17.8 °C 16.4 °C 1014.1 hPa NW 1.6 km/h 1.6 km/h 92% 0 mm
22:03 17.7 °C 16.4 °C 1014.1 hPa NNW 1.6 km/h 3.2 km/h 92% 0 mm
22:08 17.7 °C 16.3 °C 1014.1 hPa NNW 1.6 km/h 1.6 km/h 92% 0 mm
22:13 17.7 °C 16.3 °C 1014.4 hPa NNW 1.6 km/h 1.6 km/h 92% 0 mm
22:18 17.6 °C 16.2 °C 1014.1 hPa NW 1.6 km/h 3.2 km/h 92% 0 mm
22:23 17.4 °C 16.3 °C 1014.1 hPa NNW 1.6 km/h 3.2 km/h 93% 0 mm
22:28 17.3 °C 16.2 °C 1014.1 hPa NNW 1.6 km/h 4.8 km/h 93% 0 mm
22:33 17.3 °C 16.1 °C 1014.4 hPa NNW 3.2 km/h 3.2 km/h 93% 0 mm
22:38 17.2 °C 16.1 °C 1014.4 hPa NNW 3.2 km/h 4.8 km/h 93% 0 mm
22:43 17.2 °C 16.1 °C 1014.4 hPa North 3.2 km/h 3.2 km/h 93% 0 mm
22:48 17.2 °C 16.1 °C 1014.4 hPa North 3.2 km/h 3.2 km/h 93% 0 mm
22:53 17.2 °C 16.1 °C 1014.4 hPa North 1.6 km/h 3.2 km/h 93% 0 mm
22:58 17.2 °C 16 °C 1014.4 hPa Calm   3.2 km/h 93% 0 mm
23:03 17.2 °C 16 °C 1014.4 hPa Calm   1.6 km/h 93% 0 mm
23:08 17.1 °C 16 °C 1014.4 hPa Calm   4.8 km/h 93% 0 mm
23:13 17.1 °C 15.9 °C 1014.8 hPa Calm   1.6 km/h 93% 0 mm
23:18 17 °C 15.8 °C 1014.8 hPa North 1.6 km/h 3.2 km/h 93% 0 mm
23:23 17 °C 15.8 °C 1014.8 hPa NNE 1.6 km/h 1.6 km/h 93% 0 mm
23:28 17 °C 15.8 °C 1014.8 hPa NNW 1.6 km/h 1.6 km/h 93% 0 mm
23:33 17 °C 15.8 °C 1014.8 hPa North 1.6 km/h 1.6 km/h 93% 0 mm
23:38 17.1 °C 15.9 °C 1014.8 hPa Calm   3.2 km/h 93% 0 mm
23:43 17.1 °C 15.9 °C 1014.8 hPa North 1.6 km/h 3.2 km/h 93% 0 mm
23:48 17 °C 15.8 °C 1014.8 hPa North 1.6 km/h 3.2 km/h 93% 0 mm
23:53 16.9 °C 15.8 °C 1014.8 hPa Calm   1.6 km/h 93% 0 mm
23:58 16.9 °C 15.7 °C 1014.8 hPa Calm   1.6 km/h 93% 0 mm
Compliments of Weather Underground